Time,TemperatureF,DewpointF,PressureIn,WindDirection,WindDirectionDegrees,WindSpeedMPH,WindSpeedGustMPH,Humidity,HourlyPrecipIn,Conditions,Clouds,dailyrainin,SoftwareType,DateUTC
2013-02-04 01:03:00,15.6,15.1,29.82,South,180,5.3,-999.0,98,-99.99,,,0.00,Acu-Link.com,2013-02-04 06:03:00,
2013-02-04 01:30:00,15.3,14.8,29.84,South,180,12.5,-999.0,98,-99.99,,,0.00,Acu-Link.com,2013-02-04 06:30:00,
2013-02-04 02:50:00,15.3,14.8,29.87,South,180,9.9,-999.0,98,-99.99,,,0.00,Acu-Link.com,2013-02-04 07:50:00,
2013-02-04 08:38:00,15.8,15.3,29.91,West,270,4.7,-999.0,98,-99.99,,,0.00,Acu-Link.com,2013-02-04 13:38:00,
2013-02-04 08:58:00,16.0,15.5,29.88,NW,315,4.7,-999.0,98,-99.99,,,0.00,Acu-Link.com,2013-02-04 13:58:00,
2013-02-04 09:18:00,17.4,16.9,29.86,SSW,202,9.4,-999.0,98,-99.99,,,0.00,Acu-Link.com,2013-02-04 14:18:00,
2013-02-04 09:34:00,17.6,16.9,29.86,SSW,202,3.2,-999.0,97,-99.99,,,0.00,Acu-Link.com,2013-02-04 14:34:00,
2013-02-04 09:51:00,18.7,16.8,29.85,NNW,337,5.3,-999.0,92,-99.99,,,0.00,Acu-Link.com,2013-02-04 14:51:00,
2013-02-04 10:09:00,18.9,16.7,29.86,North,0,0.0,-999.0,91,-99.99,,,0.00,Acu-Link.com,2013-02-04 15:09:00,
2013-02-04 10:25:00,20.8,17.8,29.86,SSW,202,5.8,-999.0,88,-99.99,,,0.00,Acu-Link.com,2013-02-04 15:25:00,
2013-02-04 10:40:00,21.2,17.9,29.85,SW,225,0.0,-999.0,87,-99.99,,,0.00,Acu-Link.com,2013-02-04 15:40:00,
2013-02-04 10:59:00,22.1,18.8,29.84,SW,225,3.2,-999.0,87,-99.99,,,0.00,Acu-Link.com,2013-02-04 15:59:00,
2013-02-04 11:19:00,23.2,19.6,29.84,ESE,112,4.2,-999.0,86,-99.99,,,0.00,Acu-Link.com,2013-02-04 16:19:00,
2013-02-04 11:35:00,25.0,20.9,29.84,SSW,202,5.3,-999.0,84,-99.99,,,0.00,Acu-Link.com,2013-02-04 16:35:00,
2013-02-04 11:55:00,25.2,21.6,29.84,SW,225,7.8,-999.0,86,-99.99,,,0.00,Acu-Link.com,2013-02-04 16:55:00,
2013-02-04 12:26:00,25.2,21.6,29.81,WSW,247,12.5,-999.0,86,-99.99,,,0.00,Acu-Link.com,2013-02-04 17:26:00,
2013-02-04 12:44:00,25.3,21.4,29.81,WSW,247,4.7,-999.0,85,-99.99,,,0.00,Acu-Link.com,2013-02-04 17:44:00,
2013-02-04 14:46:00,27.5,25.0,29.77,WNW,292,0.0,-999.0,90,-99.99,,,0.00,Acu-Link.com,2013-02-04 19:46:00,
2013-02-04 15:12:00,27.3,26.8,29.78,SW,225,0.0,-999.0,98,-99.99,,,0.00,Acu-Link.com,2013-02-04 20:12:00,
2013-02-04 15:29:00,27.1,26.6,29.78,West,270,0.0,-999.0,98,-99.99,,,0.00,Acu-Link.com,2013-02-04 20:29:00,